[[{"header":{"parameterUnit":"m.s-1","parameterCategory":1,"la1":30.2991,"la2":30.254,"lo1":-89.0895,"lo2":-89.0444,"dy":0.0017,"dx":0.0017,"nx":28,"ny":28,"refTime":"2023-03-21T21:00:00:Z","depth":0,"parameterNumber":2,"parameterNumberName":"U-component_of_WINDS"},"data":[0,0,0,0,0,0,0,0,0,0,0,0,0,0,0,0,0,0,0,0,0,0,0,0,0,0,0,0,0,0,0,0,0,0,0,0,0,0,0,0,0,0,0,0,0,0,0,0,0,0,0,0,0,0,0,0,0,0,-2.9186,-2.9186,0,-2.9206,-2.9206,-2.9206,-2.9201,-2.9201,-2.92,-2.92,-2.9218,-2.9219,-2.922,0,0,0,0,0,0,0,0,0,0,0,0,0,-2.9143,-2.9144,-2.9186,-2.9186,-2.9187,-2.9206,-2.9206,-2.9206,-2.9201,-2.9201,-2.92,-2.92,-2.9218,-2.9219,-2.922,0,0,0,0,0,0,0,0,0,0,0,0,0,-2.9162,-2.9144,-2.9186,-2.9186,-2.9187,-2.9206,-2.9206,-2.9206,-2.9201,-2.9201,-2.92,-2.9199,-2.9218,-2.9219,-2.922,-2.924,0,0,-2.9224,-2.9225,0,0,0,0,0,0,0,0,-2.9161,-2.9164,-2.9186,-2.9186,-2.9187,-2.92,-2.9198,-2.9218,-2.9201,-2.9196,-2.92,-2.9199,-2.9213,-2.9214,-2.9219,-2.9241,-2.9242,-2.9224,-2.9225,-2.9226,-2.9226,0,0,0,0,0,0,0,-2.916,-2.9163,-2.9194,-2.9186,-2.9187,-2.9185,-2.9187,-2.9201,-2.9207,-2.9196,-2.9196,-2.9198,-2.9213,-2.9218,-2.922,-2.9242,-2.9224,-2.9226,-2.9226,-2.9227,-2.928,-2.928,0,0,0,0,0,0,-2.9159,-2.9162,-2.9193,-2.9194,-2.9172,-2.9186,-2.9189,-2.9197,-2.9207,-2.9208,-2.9199,-2.9198,-2.9216,-2.9218,-2.922,-2.9243,-2.9226,-2.9227,-2.9228,-2.9279,-2.928,-2.9281,0,0,0,0,0,0,-2.9158,-2.9161,-2.9193,-2.9178,-2.9182,-2.9188,-2.9197,-2.9197,-2.9202,-2.9209,-2.921,-2.9203,-2.9216,-2.9219,-2.9235,-2.9244,-2.9228,-2.9229,-2.9278,-2.9279,-2.928,-2.929,0,0,0,0,0,0,-2.9156,-2.9161,-2.9169,-2.9178,-2.9183,-2.9207,-2.9197,-2.9198,-2.9205,-2.9204,-2.9213,-2.9214,-2.9216,-2.9233,-2.9236,-2.9245,-2.923,-2.9278,-2.9279,-2.928,-2.9288,-2.9291,-2.9293,0,0,0,0,0,-2.9155,-2.917,-2.9169,-2.9173,-2.9193,-2.9208,-2.921,-2.9212,-2.9206,-2.9213,-2.9217,-2.9214,-2.9243,-2.9235,-2.9238,-2.9248,-2.9277,-2.9279,-2.928,-2.9288,-2.929,-2.9293,0,0,0,0,0,0,-2.9161,-2.9172,-2.917,-2.919,-2.9198,-2.9207,-2.9216,-2.9215,-2.9224,-2.9223,-2.9224,-2.9226,-2.9243,-2.9247,-2.9239,-2.9267,-2.9259,-2.9261,-2.9264,-2.9266,-2.9268,-2.9266,-2.9231,0,0,0,0,0,-2.9165,-2.9177,-2.9185,-2.9201,-2.9205,-2.921,-2.9217,-2.9217,-2.9226,-2.9229,-2.9235,-2.9242,-2.9253,-2.926,-2.9271,-2.929,-2.9291,-2.9298,-2.93,-2.9302,-2.9303,-2.9313,-2.9316,-2.9285,-2.9285,-2.9285,0,0,-2.9172,-2.918,-2.9187,-2.9203,-2.9209,-2.9221,-2.9213,-2.9226,-2.9234,-2.9231,-2.9246,-2.9251,-2.926,-2.9278,-2.9286,-2.9282,-2.9312,-2.9304,-2.9305,-2.9305,-2.9315,-2.9318,-2.932,-2.9286,-2.9286,-2.9286,0,0,-2.9192,-2.9199,-2.9212,-2.9219,-2.9229,-2.9233,-2.9236,-2.9245,-2.9248,-2.9264,-2.9262,-2.9272,-2.9291,-2.9297,-2.9303,-2.9325,-2.9322,-2.9329,-2.9339,-2.9349,-2.9351,-2.9353,-2.936,-2.9363,-2.9331,-2.9331,-2.9331,0,-2.9199,-2.9217,-2.922,-2.9233,-2.9239,-2.9238,-2.9251,-2.9258,-2.9271,-2.9275,-2.9271,-2.9294,-2.93,-2.9319,-2.9325,-2.933,-2.9333,-2.9327,-2.9351,-2.9353,-2.9355,-2.9361,-2.9364,-2.9331,-2.9331,-2.9331,-2.9331,0,-2.9226,-2.9238,-2.9248,-2.9261,-2.9269,-2.9282,-2.9286,-2.9294,-2.9294,-2.9298,-2.9314,-2.9322,-2.9333,-2.9338,-2.9338,-2.9357,-2.9354,-2.935,-2.9342,-2.9358,-2.9364,-2.9367,-2.9332,-2.9332,-2.9332,-2.9332,0,0,-2.9248,-2.9262,-2.9266,-2.9271,-2.9283,-2.9292,-2.9306,-2.9317,-2.9324,-2.9333,-2.9343,-2.936,-2.9356,-2.9363,-2.9364,-2.9373,-2.9389,-2.9368,-2.9368,-2.937,-2.9409,-2.9411,-2.9414,-2.9388,-2.9388,-2.9389,-2.9408,0,-2.9267,-2.929,-2.9293,-2.9314,-2.9325,-2.9324,-2.9336,-2.9344,-2.9348,-2.9357,-2.9362,-2.9373,-2.9368,-2.9372,-2.9381,-2.9385,-2.9396,-2.9384,-2.9396,-2.9397,-2.9393,-2.9417,-2.9419,-2.9437,-2.941,-2.9411,-2.9411,0,-2.9292,-2.9302,-2.9324,-2.9334,-2.9339,-2.9349,-2.936,-2.937,-2.9379,-2.9381,-2.9389,-2.9389,-2.9402,-2.9394,-2.9412,-2.9404,-2.9409,-2.9412,-2.9413,-2.9413,-2.9404,-2.9416,-2.9442,-2.9444,-2.9415,-2.9415,-2.9415,0,-2.9305,-2.9324,-2.9339,-2.9344,-2.9356,-2.9363,-2.9369,-2.9378,-2.9384,-2.9394,-2.9399,-2.941,-2.9416,-2.9424,-2.9427,-2.9421,-2.9445,-2.9437,-2.9446,-2.9446,-2.945,-2.9449,-2.9476,-2.9456,-2.9456,-2.9456,-2.9456,0,-2.9325,-2.9338,-2.9345,-2.9354,-2.9369,-2.9372,-2.9386,-2.9391,-2.9399,-2.9409,-2.941,-2.9419,-2.9423,-2.9433,-2.9436,-2.945,-2.9453,-2.9454,-2.9455,-2.9454,-2.9453,-2.9456,-2.9454,-2.9456,-2.9456,-2.9456,-2.9456,0,-2.934,-2.9346,-2.9362,-2.9373,-2.9376,-2.9386,-2.9395,-2.9403,-2.9408,-2.942,-2.9424,-2.943,-2.9442,-2.9447,-2.9461,-2.9463,-2.9478,-2.9478,-2.9475,-2.9475,-2.9483,-2.9482,-2.9511,-2.9515,-2.9494,-2.9494,-2.9494,0,-2.9352,-2.9362,-2.9374,-2.9381,-2.9386,-2.9398,-2.9405,-2.9409,-2.9416,-2.9428,-2.9435,-2.9447,-2.9457,-2.9475,-2.9481,-2.9492,-2.9492,-2.9501,-2.9493,-2.9492,-2.949,-2.9489,-2.949,-2.9502,-2.9502,-2.9502,-2.9503,0,-2.9372,-2.9375,-2.9385,-2.9397,-2.9405,-2.9414,-2.9423,-2.9429,-2.9435,-2.9443,-2.9455,-2.9463,-2.9477,-2.9489,-2.95,-2.9505,-2.9505,-2.9505,-2.9508,-2.9506,-2.9503,-2.9504,-2.9478,-2.9504,-2.9504,-2.9504,-2.9504,-2.9504,-2.9385,-2.9394,-2.9404,-2.9415,-2.9423,-2.9431,-2.944,-2.9446,-2.9456,-2.9468,-2.9471,-2.9483,-2.9492,-2.9508,-2.9514,-2.9523,-2.9521,-2.9525,-2.9525,-2.9526,-2.9526,-2.9503,-2.9526,-2.9526,-2.9526,-2.9526,-2.9526,0,-2.9404,-2.9411,-2.9421,-2.9434,-2.9443,-2.9443,-2.9453,-2.946,-2.9472,-2.9481,-2.949,-2.9504,-2.9515,-2.9523,-2.9534,-2.9541,-2.954,-2.9543,-2.9542,-2.9543,-2.9528,-2.9524,-2.9543,-2.9543,-2.9543,-2.9543,-2.9543,-2.9543,-2.9415,-2.9429,-2.9433,-2.9451,-2.9457,-2.947,-2.9476,-2.9484,-2.9491,-2.9506,-2.9516,-2.9521,-2.9529,-2.9541,-2.9551,-2.9553,-2.9557,-2.9559,-2.9561,-2.9546,-2.9544,-2.9542,-2.9539,-2.956,-2.956,-2.9575,-2.9575,-2.9575]},{"header":{"parameterUnit":"m.s-1","parameterCategory":1,"la1":30.2991,"la2":30.254,"lo1":-89.0895,"lo2":-89.0444,"dy":0.0017,"dx":0.0017,"nx":28,"ny":28,"refTime":"2023-03-21T21:00:00:Z","depth":0,"parameterNumber":3,"parameterNumberName":"V-component_of_WINDS"},"data":[0,0,0,0,0,0,0,0,0,0,0,0,0,0,0,0,0,0,0,0,0,0,0,0,0,0,0,0,0,0,0,0,0,0,0,0,0,0,0,0,0,0,0,0,0,0,0,0,0,0,0,0,0,0,0,0,0,0,3.2473,3.2473,0,3.2484,3.2485,3.2485,3.2488,3.2488,3.2488,3.2488,3.2499,3.2499,3.2499,0,0,0,0,0,0,0,0,0,0,0,0,0,3.2454,3.2455,3.2473,3.2473,3.2473,3.2484,3.2485,3.2485,3.2488,3.2488,3.2488,3.2488,3.2499,3.2499,3.25,0,0,0,0,0,0,0,0,0,0,0,0,0,3.2464,3.2455,3.2473,3.2476,3.2476,3.2484,3.2485,3.2485,3.2488,3.2488,3.2488,3.2488,3.2499,3.2499,3.25,3.2505,0,0,3.2501,3.2501,0,0,0,0,0,0,0,0,3.2463,3.2464,3.2475,3.2476,3.2476,3.2485,3.2482,3.2491,3.2488,3.2484,3.2488,3.2488,3.2494,3.2495,3.2497,3.2505,3.2506,3.2501,3.2502,3.2502,3.2502,0,0,0,0,0,0,0,3.2462,3.2464,3.2477,3.2475,3.2476,3.2477,3.2479,3.2484,3.2489,3.2484,3.2484,3.2486,3.2494,3.2497,3.2498,3.2506,3.2501,3.2502,3.2502,3.2502,3.2522,3.2522,0,0,0,0,0,0,3.2461,3.2463,3.2477,3.2478,3.2469,3.2478,3.2479,3.2482,3.2489,3.249,3.2486,3.2486,3.2496,3.2497,3.2498,3.2507,3.2502,3.2502,3.2503,3.2521,3.2522,3.2522,0,0,0,0,0,0,3.2461,3.2462,3.2476,3.2471,3.2472,3.2478,3.2481,3.2482,3.2485,3.249,3.2491,3.2487,3.2496,3.2497,3.2504,3.2507,3.2502,3.2503,3.2521,3.2521,3.2522,3.2523,0,0,0,0,0,0,3.246,3.2462,3.2464,3.2471,3.2473,3.2482,3.2482,3.2483,3.2486,3.2486,3.2492,3.2493,3.2496,3.2503,3.2504,3.2508,3.2503,3.2521,3.2521,3.2522,3.2522,3.2523,3.2523,0,0,0,0,0,3.246,3.2462,3.2464,3.2465,3.2475,3.2482,3.2483,3.2487,3.2486,3.2488,3.2492,3.2493,3.2506,3.2504,3.2505,3.2509,3.2521,3.2521,3.2522,3.2522,3.2523,3.2523,0,0,0,0,0,0,3.2454,3.2463,3.2465,3.247,3.2475,3.2482,3.2485,3.2487,3.2492,3.2492,3.2496,3.2497,3.2504,3.2507,3.2503,3.2516,3.2514,3.2514,3.2513,3.2514,3.2515,3.2514,3.2504,0,0,0,0,0,3.2454,3.2459,3.2466,3.247,3.2473,3.2479,3.2482,3.2484,3.249,3.2492,3.2496,3.2501,3.2507,3.2511,3.2516,3.2523,3.2525,3.2526,3.2527,3.2527,3.2528,3.2535,3.2536,3.2523,3.2523,3.2523,0,0,3.2453,3.2459,3.2461,3.2469,3.2474,3.248,3.248,3.2485,3.249,3.2492,3.25,3.2503,3.2509,3.2517,3.252,3.2519,3.2532,3.2528,3.2528,3.2529,3.2535,3.2536,3.2537,3.2524,3.2524,3.2524,0,0,3.2454,3.2458,3.2463,3.2468,3.2476,3.248,3.2481,3.2489,3.2492,3.2499,3.2502,3.2508,3.2516,3.2522,3.2526,3.2533,3.2534,3.2534,3.2537,3.2544,3.2545,3.2545,3.255,3.2551,3.2535,3.2535,3.2535,0,3.2452,3.2461,3.2465,3.2472,3.2476,3.248,3.2486,3.2491,3.2499,3.2502,3.2501,3.2515,3.2519,3.253,3.2532,3.2534,3.2537,3.2534,3.2544,3.2545,3.2546,3.255,3.2552,3.2535,3.2535,3.2535,3.2535,0,3.2459,3.2465,3.2468,3.2478,3.2483,3.2489,3.2495,3.25,3.2503,3.2507,3.2516,3.2522,3.253,3.2533,3.2534,3.2544,3.2544,3.2543,3.2542,3.2547,3.2552,3.2553,3.2535,3.2535,3.2535,3.2535,0,0,3.2456,3.247,3.2471,3.2477,3.2487,3.2492,3.2499,3.2508,3.2513,3.2519,3.2526,3.2536,3.2537,3.2541,3.2544,3.2549,3.2558,3.2549,3.2549,3.2552,3.2571,3.2572,3.2574,3.2559,3.2559,3.2559,3.2571,0,3.246,3.2473,3.2479,3.2489,3.2497,3.2502,3.2508,3.2516,3.2521,3.2528,3.2534,3.2541,3.254,3.2544,3.2549,3.2555,3.2562,3.2554,3.2567,3.2567,3.2566,3.2576,3.2576,3.2587,3.2573,3.2573,3.2573,0,3.2465,3.2474,3.2486,3.2498,3.2501,3.2506,3.2517,3.2523,3.2532,3.2536,3.2543,3.2546,3.2555,3.2553,3.2567,3.2562,3.2567,3.2571,3.2572,3.2574,3.2571,3.258,3.2591,3.2593,3.2576,3.2575,3.2575,0,3.2464,3.2478,3.2488,3.2493,3.2506,3.2511,3.2516,3.2526,3.2532,3.2541,3.2545,3.2554,3.256,3.2568,3.2574,3.2572,3.2588,3.2586,3.2592,3.2592,3.2596,3.2596,3.2609,3.2597,3.2597,3.2597,3.2597,0,3.2469,3.2476,3.2488,3.2494,3.2504,3.2511,3.2521,3.2527,3.2536,3.2544,3.2548,3.2556,3.2564,3.2573,3.2578,3.259,3.2592,3.2596,3.2597,3.2596,3.2596,3.26,3.26,3.2598,3.2598,3.2597,3.2597,0,3.2469,3.2477,3.2489,3.2501,3.2505,3.2512,3.2523,3.253,3.2536,3.2547,3.255,3.256,3.2571,3.2579,3.2592,3.2596,3.261,3.261,3.2607,3.2608,3.2615,3.2615,3.2633,3.2637,3.2621,3.2621,3.2621,0,3.2471,3.2478,3.2492,3.2499,3.2505,3.2515,3.2522,3.253,3.2537,3.255,3.2556,3.2568,3.2578,3.2596,3.2604,3.2616,3.2618,3.2623,3.2619,3.2619,3.262,3.262,3.2622,3.2624,3.2624,3.2624,3.2624,0,3.2476,3.2481,3.249,3.2503,3.2511,3.2521,3.2531,3.2536,3.2546,3.2554,3.2567,3.2575,3.2591,3.2603,3.2616,3.2622,3.2626,3.2626,3.2628,3.2628,3.2626,3.2629,3.261,3.2625,3.2625,3.2625,3.2625,3.2625,3.2479,3.2486,3.2498,3.251,3.2519,3.2529,3.2537,3.2545,3.2556,3.257,3.2574,3.2588,3.26,3.2618,3.2625,3.2636,3.2635,3.2638,3.264,3.2641,3.2642,3.2624,3.2638,3.2638,3.2638,3.2638,3.2638,0,3.2485,3.2494,3.2505,3.252,3.253,3.2533,3.2545,3.2553,3.2565,3.2576,3.2587,3.2603,3.2616,3.2627,3.264,3.2647,3.265,3.2651,3.2651,3.2653,3.264,3.2638,3.2649,3.2649,3.2649,3.2649,3.2649,3.2649,3.2489,3.2503,3.2509,3.2528,3.2537,3.2551,3.2558,3.2568,3.2577,3.2595,3.2606,3.2613,3.2625,3.264,3.2653,3.2656,3.2662,3.2663,3.2667,3.2655,3.2653,3.2652,3.265,3.2664,3.2664,3.2678,3.2679,3.2679]}]]